カタログに戻る

STARLINK-35495

運用中通信VLEO
NORAD 66243·PAYLOAD·🇺🇸 United States

打ち上げ Oct 29, 2025 から Cape Canaveral Space Force Station

Loading…

次のパス (今後24時間)

TLE

最新Source: CelesTrak SupGP

元期: Sep 14, 2026, 21:34 UTC

1 66243C 25245K   26257.89909722 -.00045501  00000+0 -13445-2 0  2579
2 66243  53.1573 124.0374 0001194  88.4260 121.9903 15.34410801    14

AllMySatでSTARLINK-35495をリアルタイム追跡

Download on the App Store